TimeEDT,TemperatureF,Dew PointF,Humidity,Sea Level PressureIn,VisibilityMPH,Wind Direction,Wind SpeedMPH,Gust SpeedMPH,PrecipitationIn,Events,Conditions,WindDirDegrees,DateUTC
12:51 AM,82.0,72.0,71,29.87,10.0,SW,13.8,-,N/A,,Overcast,220,2013-06-26 04:51:00
1:51 AM,81.0,71.1,72,29.87,10.0,SW,15.0,-,N/A,,Overcast,230,2013-06-26 05:51:00
2:32 AM,77.0,68.0,74,29.92,10.0,NNW,17.3,27.6,0.00,Rain-Thunderstorm,Light Thunderstorms and Rain,330,2013-06-26 06:32:00
2:44 AM,73.4,64.4,73,29.92,10.0,North,20.7,29.9,0.00,Rain-Thunderstorm,Light Thunderstorms and Rain,350,2013-06-26 06:44:00
2:51 AM,73.0,64.9,76,29.91,10.0,North,10.4,24.2,0.00,Thunderstorm,Thunderstorm,350,2013-06-26 06:51:00
2:53 AM,73.4,64.4,73,29.93,10.0,NW,10.4,24.2,N/A,,Overcast,320,2013-06-26 06:53:00
3:07 AM,71.6,64.4,78,29.92,10.0,NNE,15.0,20.7,N/A,,Overcast,20,2013-06-26 07:07:00
3:17 AM,71.6,64.4,78,29.94,3.0,North,13.8,-,0.00,Rain-Thunderstorm,Heavy Thunderstorms and Rain,350,2013-06-26 07:17:00
3:41 AM,69.8,66.2,88,29.91,10.0,East,8.1,-,0.11,Rain,Light Rain,80,2013-06-26 07:41:00
3:51 AM,69.1,66.9,93,29.89,10.0,East,6.9,-,0.11,,Overcast,80,2013-06-26 07:51:00
4:51 AM,69.1,66.9,93,29.88,10.0,ESE,6.9,-,N/A,,Overcast,120,2013-06-26 08:51:00
5:07 AM,69.8,66.2,88,29.94,2.0,West,12.7,-,0.01,Rain,Heavy Rain,270,2013-06-26 09:07:00
5:10 AM,69.8,66.2,88,29.93,5.0,West,5.8,-,0.09,Rain,Light Rain,270,2013-06-26 09:10:00
5:32 AM,69.8,66.2,88,29.93,10.0,Calm,Calm,-,0.13,,Mostly Cloudy,0,2013-06-26 09:32:00
5:51 AM,69.1,66.9,93,29.90,10.0,Calm,Calm,-,0.13,,Mostly Cloudy,0,2013-06-26 09:51:00
6:51 AM,69.1,69.1,100,29.91,9.0,South,4.6,-,0.00,Rain,Light Rain,190,2013-06-26 10:51:00
7:51 AM,70.0,68.0,93,29.88,10.0,Calm,Calm,-,0.01,,Overcast,0,2013-06-26 11:51:00
8:34 AM,71.6,68.0,88,29.90,10.0,Calm,Calm,-,N/A,,Mostly Cloudy,0,2013-06-26 12:34:00
8:51 AM,71.1,69.1,93,29.90,10.0,South,6.9,-,N/A,,Mostly Cloudy,190,2013-06-26 12:51:00
9:51 AM,73.0,69.1,87,29.91,10.0,South,8.1,-,N/A,,Overcast,190,2013-06-26 13:51:00
10:18 AM,73.4,69.8,88,29.92,10.0,SSW,9.2,-,N/A,,Overcast,200,2013-06-26 14:18:00
10:25 AM,75.2,69.8,83,29.92,10.0,SSW,9.2,-,N/A,,Mostly Cloudy,210,2013-06-26 14:25:00
10:35 AM,75.2,69.8,83,29.92,10.0,SW,9.2,-,N/A,,Overcast,220,2013-06-26 14:35:00
10:51 AM,75.9,66.9,74,29.89,10.0,SW,9.2,-,N/A,,Overcast,220,2013-06-26 14:51:00
11:51 AM,79.0,66.0,64,29.91,10.0,West,8.1,-,N/A,,Mostly Cloudy,260,2013-06-26 15:51:00
12:51 PM,82.9,66.0,56,29.91,10.0,SW,9.2,-,N/A,,Mostly Cloudy,220,2013-06-26 16:51:00
1:51 PM,82.9,68.0,60,29.88,10.0,South,11.5,-,N/A,,Mostly Cloudy,190,2013-06-26 17:51:00
2:51 PM,84.0,69.1,61,29.86,10.0,SSW,11.5,-,N/A,,Scattered Clouds,200,2013-06-26 18:51:00
3:51 PM,86.0,69.1,57,29.84,10.0,South,10.4,19.6,N/A,,Overcast,190,2013-06-26 19:51:00
4:51 PM,84.9,70.0,61,29.81,10.0,SSW,11.5,-,N/A,,Mostly Cloudy,200,2013-06-26 20:51:00
5:51 PM,84.0,70.0,63,29.81,10.0,South,12.7,-,N/A,,Mostly Cloudy,180,2013-06-26 21:51:00
6:33 PM,77.0,64.4,65,29.84,0.5,West,26.5,38.0,0.00,Rain,Heavy Rain,260,2013-06-26 22:33:00
6:36 PM,73.4,68.0,83,29.83,1.5,West,25.3,38.0,0.00,Rain,Heavy Rain,260,2013-06-26 22:36:00
6:44 PM,71.6,66.2,83,29.83,7.0,WSW,8.1,-,0.16,Rain,Heavy Rain,240,2013-06-26 22:44:00
6:51 PM,72.0,66.9,84,29.81,10.0,SW,3.5,-,0.17,Rain,Light Rain,220,2013-06-26 22:51:00
7:51 PM,72.0,69.1,91,29.80,8.0,South,9.2,-,0.00,Rain,Light Rain,170,2013-06-26 23:51:00
8:51 PM,71.1,68.0,90,29.81,9.0,South,11.5,-,0.02,Rain,Light Rain,190,2013-06-27 00:51:00
9:51 PM,71.1,69.1,93,29.80,10.0,SE,8.1,-,0.00,,Overcast,140,2013-06-27 01:51:00
10:51 PM,71.1,68.0,90,29.79,10.0,ESE,4.6,-,N/A,,Overcast,120,2013-06-27 02:51:00
11:51 PM,71.1,68.0,90,29.81,10.0,SSE,4.6,-,0.00,Rain,Light Rain,150,2013-06-27 03:51:00